[[{"header":{"parameterUnit":"m.s-1","parameterCategory":1,"la1":30.2991,"la2":30.254,"lo1":-89.0895,"lo2":-89.0444,"dy":0.0017,"dx":0.0017,"nx":28,"ny":28,"refTime":"2023-08-25T09:00:00:Z","depth":0,"parameterNumber":2,"parameterNumberName":"U-component_of_WINDS"},"data":[0,0,0,0,0,0,0,0,0,0,0,0,0,0,0,0,0,0,0,0,0,0,0,0,0,0,0,0,0,0,0,0,0,0,0,0,0,0,0,0,0,0,0,0,0,0,0,0,0,0,0,0,0,0,0,0,0,0,3.2745,3.2747,0,3.291,3.2912,3.2914,3.2933,3.2931,3.2929,3.2928,3.3096,3.3102,3.3108,0,0,0,0,0,0,0,0,0,0,0,0,0,3.2443,3.2448,3.2745,3.2747,3.2749,3.291,3.2912,3.2915,3.2933,3.2931,3.2929,3.2927,3.3094,3.3101,3.3108,0,0,0,0,0,0,0,0,0,0,0,0,0,3.2588,3.245,3.2744,3.2778,3.2782,3.291,3.2912,3.2915,3.2933,3.2931,3.2928,3.2926,3.3092,3.31,3.3109,3.3215,0,0,3.3137,3.3141,0,0,0,0,0,0,0,0,3.2579,3.2599,3.2771,3.2776,3.2781,3.2898,3.2868,3.3016,3.2934,3.2876,3.2928,3.2925,3.3032,3.3046,3.3082,3.3223,3.323,3.3138,3.3143,3.3147,3.315,0,0,0,0,0,0,0,3.2569,3.2592,3.281,3.2773,3.2779,3.2784,3.2801,3.2896,3.2966,3.2881,3.2883,3.2902,3.3034,3.3074,3.3086,3.3232,3.3137,3.3145,3.3151,3.3155,3.3465,3.3468,0,0,0,0,0,0,3.2553,3.2583,3.2805,3.2815,3.2672,3.2791,3.2811,3.2863,3.2965,3.2978,3.2904,3.2902,3.3059,3.3076,3.3092,3.3221,3.3147,3.3155,3.3161,3.3463,3.3466,3.3469,0,0,0,0,0,0,3.2547,3.2573,3.2798,3.27,3.2729,3.2799,3.2857,3.2868,3.2907,3.2982,3.2995,3.2931,3.3058,3.308,3.3184,3.3227,3.316,3.3168,3.3459,3.3464,3.3468,3.3479,0,0,0,0,0,0,3.2538,3.2571,3.2612,3.2701,3.2734,3.2887,3.286,3.2873,3.2922,3.2922,3.3011,3.3024,3.3058,3.317,3.3193,3.3238,3.3175,3.3456,3.3461,3.3466,3.3475,3.3483,3.349,0,0,0,0,0,3.2527,3.2608,3.2614,3.264,3.2787,3.289,3.2909,3.2947,3.2926,3.2967,3.3016,3.3021,3.3219,3.3181,3.3206,3.3255,3.3453,3.346,3.3466,3.3472,3.3482,3.349,0,0,0,0,0,0,3.2522,3.2621,3.2628,3.274,3.2807,3.2893,3.2946,3.2957,3.303,3.3026,3.307,3.309,3.3192,3.3234,3.319,3.3361,3.3334,3.3346,3.333,3.334,3.3347,3.3334,3.3182,0,0,0,0,0,3.2535,3.2611,3.2692,3.2784,3.2817,3.2876,3.2922,3.2946,3.3016,3.3044,3.31,3.3168,3.3245,3.3295,3.3371,3.3482,3.3501,3.3528,3.3536,3.3541,3.355,3.361,3.3623,3.349,3.349,3.349,0,0,3.256,3.2623,3.2668,3.2784,3.2838,3.2915,3.2899,3.2981,3.3038,3.3056,3.3157,3.3201,3.328,3.3387,3.3437,3.3426,3.3591,3.355,3.3554,3.356,3.3618,3.3631,3.3642,3.3494,3.3494,3.3493,0,0,3.2645,3.2702,3.2783,3.2838,3.292,3.2959,3.2978,3.3063,3.3093,3.3195,3.321,3.3279,3.3412,3.3466,3.3511,3.3617,3.3624,3.3641,3.3679,3.3737,3.3747,3.3757,3.3792,3.3805,3.365,3.365,3.365,0,3.2666,3.2783,3.2823,3.2905,3.2954,3.2975,3.3057,3.3108,3.3211,3.3244,3.323,3.3396,3.3451,3.357,3.3596,3.3633,3.3655,3.363,3.3743,3.3753,3.3762,3.3796,3.381,3.3651,3.3651,3.3651,3.3651,0,3.2803,3.2884,3.294,3.3038,3.3095,3.3176,3.3228,3.328,3.3299,3.3339,3.3442,3.3508,3.3597,3.3628,3.3647,3.375,3.374,3.3734,3.3707,3.3775,3.3808,3.3822,3.3653,3.3653,3.3652,3.3652,0,0,3.2888,3.3009,3.3028,3.3072,3.3165,3.3228,3.331,3.3396,3.3439,3.351,3.3578,3.369,3.3685,3.3736,3.3762,3.3814,3.389,3.3801,3.3804,3.3813,3.4006,3.4007,3.4022,3.3896,3.3899,3.3901,3.3998,0,3.2982,3.3129,3.3167,3.3292,3.3365,3.3386,3.3458,3.3521,3.3561,3.3629,3.3673,3.3751,3.3739,3.377,3.3822,3.387,3.3929,3.3864,3.3959,3.3962,3.3936,3.404,3.4043,3.4131,3.4011,3.4014,3.4015,0,3.3111,3.3184,3.3315,3.3397,3.3429,3.3492,3.3574,3.364,3.3713,3.3738,3.3795,3.3816,3.3901,3.3871,3.3988,3.3943,3.3984,3.4014,3.4018,3.4026,3.3991,3.4049,3.416,3.4172,3.4037,3.4035,3.4033,0,3.3157,3.3288,3.3383,3.3421,3.3519,3.3563,3.3606,3.3676,3.3725,3.3797,3.3829,3.391,3.3954,3.4016,3.4058,3.4033,3.4171,3.4145,3.4193,3.4191,3.4219,3.4216,3.4336,3.425,3.4249,3.4249,3.4249,0,3.3256,3.3335,3.3404,3.3463,3.3551,3.3595,3.3682,3.3725,3.3788,3.3854,3.3878,3.3939,3.3992,3.4061,3.4095,3.4185,3.4205,3.4227,3.4235,3.4224,3.422,3.4249,3.4243,3.4253,3.4252,3.4251,3.4251,0,3.3321,3.3371,3.3476,3.3561,3.3584,3.3645,3.3717,3.3774,3.3815,3.3898,3.3921,3.3984,3.4066,3.4115,3.4219,3.4241,3.4341,3.4347,3.4316,3.4319,3.4363,3.4357,3.4504,3.4524,3.4426,3.4427,3.4428,0,3.3379,3.3441,3.3532,3.3578,3.3622,3.3696,3.3747,3.3792,3.3844,3.3931,3.3977,3.406,3.4129,3.4259,3.4314,3.4393,3.44,3.4446,3.4412,3.4399,3.4398,3.4393,3.4398,3.4451,3.4452,3.4452,3.4453,0,3.3477,3.3499,3.3571,3.3652,3.3711,3.3777,3.3842,3.3879,3.3935,3.3992,3.4076,3.4129,3.4235,3.4317,3.4401,3.4445,3.4458,3.4464,3.4479,3.4467,3.4445,3.4455,3.4329,3.446,3.4459,3.4458,3.4458,3.4458,3.354,3.3594,3.3667,3.3746,3.38,3.386,3.3917,3.3965,3.4036,3.4126,3.4149,3.4236,3.4307,3.4421,3.4467,3.4535,3.4528,3.455,3.4555,3.4559,3.4559,3.4436,3.4551,3.4551,3.4551,3.4551,3.4551,0,3.3636,3.3684,3.3757,3.3847,3.3909,3.3918,3.399,3.4041,3.4118,3.4183,3.425,3.4346,3.4426,3.4488,3.4569,3.4612,3.462,3.4632,3.4628,3.4637,3.4562,3.454,3.4624,3.4624,3.4624,3.4624,3.4624,3.4624,3.3694,3.3786,3.3816,3.3935,3.3983,3.4069,3.4109,3.4165,3.4217,3.4323,3.4389,3.4429,3.4492,3.4578,3.4651,3.4668,3.4695,3.4706,3.4722,3.4651,3.4643,3.4635,3.4614,3.4712,3.4712,3.4791,3.4792,3.4792]},{"header":{"parameterUnit":"m.s-1","parameterCategory":1,"la1":30.2991,"la2":30.254,"lo1":-89.0895,"lo2":-89.0444,"dy":0.0017,"dx":0.0017,"nx":28,"ny":28,"refTime":"2023-08-25T09:00:00:Z","depth":0,"parameterNumber":3,"parameterNumberName":"V-component_of_WINDS"},"data":[0,0,0,0,0,0,0,0,0,0,0,0,0,0,0,0,0,0,0,0,0,0,0,0,0,0,0,0,0,0,0,0,0,0,0,0,0,0,0,0,0,0,0,0,0,0,0,0,0,0,0,0,0,0,0,0,0,0,3.2029,3.2029,0,3.2005,3.2005,3.2005,3.1932,3.193,3.1929,3.1927,3.1904,3.1905,3.1905,0,0,0,0,0,0,0,0,0,0,0,0,0,3.2012,3.2012,3.2029,3.2029,3.2029,3.2005,3.2005,3.2005,3.1932,3.193,3.1928,3.1926,3.1903,3.1904,3.1905,0,0,0,0,0,0,0,0,0,0,0,0,0,3.2007,3.2012,3.2029,3.1989,3.1986,3.2006,3.2005,3.2005,3.1932,3.193,3.1928,3.1925,3.1903,3.1904,3.1906,3.1962,0,0,3.191,3.191,0,0,0,0,0,0,0,0,3.2007,3.2007,3.1996,3.1992,3.1988,3.1969,3.199,3.1991,3.1933,3.1953,3.1927,3.1924,3.1927,3.1927,3.1927,3.1961,3.196,3.191,3.1911,3.1911,3.1912,0,0,0,0,0,0,0,3.2008,3.2008,3.202,3.1996,3.1991,3.1973,3.1969,3.199,3.1954,3.1951,3.1945,3.1944,3.1925,3.1926,3.1926,3.196,3.191,3.1911,3.1912,3.1912,3.2037,3.204,0,0,0,0,0,0,3.2013,3.2009,3.202,3.2019,3.1992,3.1975,3.1971,3.1978,3.1954,3.1948,3.1946,3.194,3.1925,3.1925,3.1925,3.1989,3.1911,3.1912,3.1913,3.2035,3.2038,3.204,0,0,0,0,0,0,3.2013,3.2015,3.2021,3.2012,3.2012,3.1978,3.1986,3.1978,3.198,3.195,3.1943,3.1954,3.1923,3.1923,3.1953,3.1987,3.1913,3.1914,3.2032,3.2036,3.2039,3.2117,0,0,0,0,0,0,3.2013,3.2016,3.2037,3.2013,3.2013,3.205,3.1988,3.198,3.1982,3.1975,3.1955,3.195,3.1922,3.1952,3.1955,3.1987,3.1915,3.2029,3.2033,3.2038,3.2111,3.2123,3.2133,0,0,0,0,0,3.2013,3.206,3.2038,3.204,3.2038,3.2052,3.2052,3.2018,3.1985,3.2006,3.1987,3.1951,3.1983,3.1955,3.1958,3.1992,3.2026,3.2032,3.2038,3.2106,3.2121,3.2133,0,0,0,0,0,0,3.2089,3.2056,3.2032,3.2073,3.2066,3.204,3.2065,3.2034,3.2036,3.2029,3.1987,3.1984,3.2019,3.2008,3.1978,3.2045,3.1999,3.2005,3.205,3.2063,3.2074,3.2075,3.1916,0,0,0,0,0,3.2111,3.2124,3.2095,3.2134,3.2132,3.2099,3.2104,3.2078,3.2069,3.2066,3.2049,3.2041,3.205,3.2056,3.2062,3.211,3.2104,3.2134,3.2145,3.2154,3.216,3.2183,3.2196,3.2059,3.2059,3.2059,0,0,3.2156,3.2139,3.2151,3.2149,3.2141,3.2155,3.2097,3.2116,3.2126,3.2069,3.2095,3.2083,3.2072,3.211,3.2126,3.2102,3.2196,3.2161,3.2169,3.217,3.219,3.2203,3.2214,3.2063,3.2062,3.2062,0,0,3.2244,3.2234,3.2265,3.2257,3.2244,3.2222,3.223,3.2208,3.2197,3.2223,3.218,3.2192,3.2208,3.2201,3.22,3.2286,3.2252,3.2289,3.2345,3.2368,3.2379,3.2388,3.2417,3.2429,3.2295,3.2295,3.2295,0,3.2301,3.2322,3.2285,3.2305,3.2306,3.2254,3.2284,3.2279,3.2269,3.2271,3.2244,3.2262,3.2251,3.2286,3.2307,3.2309,3.2315,3.229,3.238,3.2389,3.2397,3.2425,3.2436,3.23,3.2299,3.2299,3.2298,0,3.2392,3.2407,3.2433,3.2424,3.2428,3.2454,3.242,3.2428,3.2402,3.2383,3.2409,3.2394,3.2396,3.2403,3.2378,3.2435,3.242,3.2388,3.234,3.2415,3.244,3.2451,3.2306,3.2304,3.2303,3.2302,0,0,3.2528,3.2497,3.2508,3.2502,3.2484,3.2495,3.2518,3.2519,3.2526,3.2522,3.2539,3.2553,3.2523,3.2522,3.2496,3.2516,3.2583,3.2481,3.248,3.2499,3.2643,3.2667,3.2679,3.2561,3.2563,3.2565,3.2644,0,3.2611,3.2648,3.2615,3.2658,3.2671,3.2622,3.2642,3.2633,3.2616,3.2624,3.2604,3.2614,3.2574,3.2573,3.2591,3.2571,3.2611,3.2565,3.2577,3.2578,3.258,3.2693,3.2718,3.2793,3.2653,3.2655,3.2656,0,3.2712,3.2711,3.2756,3.2734,3.2738,3.2756,3.2754,3.2762,3.2751,3.2737,3.2735,3.2703,3.2724,3.2679,3.2707,3.2676,3.2679,3.267,3.2672,3.2671,3.2621,3.2693,3.2816,3.2827,3.2671,3.267,3.2669,0,3.2805,3.2815,3.2842,3.284,3.2815,3.2829,3.2819,3.2806,3.2808,3.2806,3.2807,3.2808,3.2809,3.281,3.2779,3.2749,3.281,3.2763,3.2799,3.2799,3.2813,3.2812,3.2936,3.2817,3.2817,3.2817,3.2816,0,3.29,3.2929,3.2883,3.29,3.2931,3.2893,3.2924,3.2909,3.2898,3.291,3.2869,3.2882,3.2841,3.285,3.2826,3.2852,3.2853,3.2841,3.2834,3.2844,3.2846,3.2845,3.2838,3.282,3.2819,3.2818,3.2818,0,3.3009,3.2979,3.3006,3.298,3.2974,3.2998,3.2976,3.299,3.297,3.2987,3.2988,3.2957,3.2965,3.2934,3.2938,3.2921,3.2959,3.2945,3.2963,3.2958,3.2995,3.2991,3.3122,3.3137,3.3009,3.3011,3.3012,0,3.3071,3.3092,3.3068,3.3073,3.3066,3.3075,3.3077,3.304,3.3044,3.3032,3.3048,3.3052,3.3054,3.3069,3.3046,3.3048,3.3032,3.3078,3.3032,3.3041,3.3031,3.303,3.3031,3.3087,3.3089,3.309,3.3091,0,3.3184,3.3168,3.3172,3.3171,3.3174,3.3171,3.3166,3.3173,3.3133,3.314,3.3147,3.3148,3.3151,3.3155,3.3153,3.3143,3.311,3.3106,3.3114,3.3123,3.3133,3.3127,3.2987,3.3102,3.3101,3.31,3.31,3.3099,3.3269,3.3285,3.327,3.3276,3.3268,3.3264,3.3276,3.3257,3.3262,3.3261,3.3239,3.325,3.3238,3.323,3.3224,3.3232,3.3211,3.3223,3.3226,3.3229,3.3235,3.3132,3.3232,3.3231,3.3231,3.3231,3.323,0,3.3379,3.3367,3.3372,3.3366,3.337,3.3339,3.3331,3.3337,3.3347,3.3338,3.334,3.3348,3.3352,3.333,3.3331,3.3342,3.3327,3.3343,3.3342,3.334,3.3254,3.3247,3.3355,3.3355,3.3355,3.3355,3.3355,3.3355,3.3436,3.346,3.3443,3.3463,3.345,3.3461,3.3459,3.3455,3.3447,3.3457,3.346,3.3446,3.3431,3.343,3.3433,3.3426,3.3428,3.3449,3.3437,3.3358,3.3346,3.3334,3.3326,3.345,3.345,3.3521,3.3522,3.3523]}]]